Location: Burtsch�tz
(51.0528°N, 12.1764°E)
Time: 07:42:33
(UTC+00:00)

Cosmos 292 Rocket - Pass Details

Date: 29 October 2020
Orbit: 673 x 695 km, 74.0° (Epoch: 01 December)

Event Time Altitude Azimuth Distance (km) Brightness Sun altitude
Rises 16:13:01 0° 183° (S) 3,029 7.4 -4.2°
Reaches altitude 10° 16:15:22 10° 177° (S) 2,122 6.5 -4.6°
Maximum altitude 16:19:54 44° 106° (ESE) 954 4.2 -5.3°
Drops below altitude 10° 16:24:28 10° 35° (NE) 2,152 5.9 -6.0°
Sets 16:26:53 0° 29° (NNE) 3,076 6.7 -6.3°
